Date String (YYYY-MM-DD hh:mm:ss) UTC,Instrument flags,absolute air pressure of the measurement (hPa),sample flow rate (lpm),inlet stack bypass flow (lpm),air temperature of the measurement (°C),ambient temperature measured by the external sensor (°C),aerosol sample conditioner tube jacket temperature (°C),OPC LED temperature (°C),internal box temperature (°C),relative humidity of the measurement (%),span deviation,mass concentration of particles derived from Lorenz-Mie calculation of OPC scattering (μg/m³),mass concentration of particles derived from Lorenz-Mie calculation of OPC scattering (μg/m³),mass concentration of particles derived from Lorenz-Mie calculation of OPC scattering (μg/m³)
DateTimeUTC,F1_M11,P_M11,Q1_M11,Q2_M11,T1_M11,T2_M11,T3_M11,T4_M11,T5_M11,U1_M11,ZSPAN_M11,X0_M11,X2_M11,X1_M11
2024-03-27 22:00:00,SystemResetWarning,0827.1,4.99,000.00,020.2,019.6,000.0,028.6,022.0,10.9,0000.0,0004.84,0001.07,0000.64
2024-03-27 22:01:00,SystemResetWarning,0827.1,4.99,000.00,020.2,019.6,000.0,028.6,022.0,11.2,0000.0,0003.99,0000.98,0000.62
2024-03-27 22:02:00,SystemResetWarning,0827.1,5.00,000.00,020.2,019.7,000.0,028.6,022.0,11.2,0000.0,0004.20,0001.00,0000.64
2024-03-27 22:03:00,SystemResetWarning,0827.1,5.00,000.00,020.2,019.7,000.0,028.6,022.0,10.9,0000.0,0003.73,0000.98,0000.63
2024-03-27 22:04:00,SystemResetWarning,0827.1,5.00,000.00,020.2,019.7,000.0,028.6,022.0,10.8,0000.0,0003.07,0000.94,0000.64
2024-03-27 22:05:00,SystemResetWarning,0827.1,5.00,000.00,020.3,019.7,000.0,028.7,022.0,10.3,0000.0,0002.95,0000.91,0000.64
2024-03-27 22:06:00,SystemResetWarning,0827.1,5.00,000.00,020.3,019.7,000.0,028.7,022.0,12.1,0000.0,0003.01,0000.95,0000.65
2024-03-27 22:07:00,SystemResetWarning,0827.1,5.00,000.00,020.3,019.7,000.0,028.7,022.0,12.6,0000.0,0003.04,0000.96,0000.66
2024-03-27 22:08:00,SystemResetWarning,0827.1,4.99,000.00,020.3,019.7,000.0,028.7,022.0,11.0,0000.0,0003.12,0000.96,0000.65
2024-03-27 22:09:00,SystemResetWarning,0827.1,5.00,000.00,020.3,019.7,000.0,028.7,022.0,10.7,0000.0,0002.08,0000.96,0000.65
2024-03-27 22:10:00,SystemResetWarning,0827.1,5.00,000.00,020.3,019.7,000.0,028.7,022.0,10.6,0000.0,0002.07,0000.97,0000.65
2024-03-27 22:11:00,SystemResetWarning,0827.1,5.00,000.00,020.3,019.7,000.0,028.7,022.0,11.1,0000.0,0001.95,0000.93,0000.65
2024-03-27 22:12:00,SystemResetWarning,0827.1,5.00,000.00,020.3,019.7,000.0,028.7,022.0,10.8,0000.0,0001.85,0000.93,0000.66
2024-03-27 22:13:00,SystemResetWarning,0827.0,5.00,000.00,020.3,019.7,000.0,028.7,022.0,11.9,0000.0,0001.55,0000.92,0000.65
2024-03-27 22:14:00,SystemResetWarning,0827.0,4.99,000.00,020.3,019.7,000.0,028.7,022.1,11.7,0000.0,0001.51,0000.93,0000.67
2024-03-27 22:15:00,SystemResetWarning,0827.0,5.01,000.00,020.3,019.7,000.0,028.7,022.1,11.5,0000.0,0001.53,0000.94,0000.67
2024-03-27 22:16:00,SystemResetWarning,0827.0,5.00,000.00,020.3,019.7,000.0,028.7,022.0,11.3,0000.0,0001.51,0000.92,0000.66
2024-03-27 22:17:00,SystemResetWarning,0827.1,5.00,000.00,020.3,019.7,000.0,028.7,022.1,10.7,0000.0,0001.43,0000.89,0000.67
2024-03-27 22:18:00,SystemResetWarning,0827.1,5.00,000.00,020.3,019.7,000.0,028.7,022.1,11.4,0000.0,0001.51,0000.93,0000.68
2024-03-27 22:19:00,SystemResetWarning,0827.1,5.00,000.00,020.3,019.7,000.0,028.7,022.1,10.6,0000.0,0001.68,0000.95,0000.69
2024-03-27 22:20:00,SystemResetWarning,0827.1,5.00,000.00,020.3,019.7,000.0,028.7,022.1,10.2,0000.0,0001.73,0000.97,0000.70
2024-03-27 22:21:00,SystemResetWarning,0827.1,5.00,000.00,020.3,019.7,000.0,028.7,022.1,10.8,0000.0,0002.08,0000.97,0000.70
2024-03-27 22:22:00,SystemResetWarning,0827.1,5.00,000.00,020.3,019.7,000.0,028.7,022.1,11.1,0000.0,0003.65,0001.01,0000.70
2024-03-27 22:23:00,SystemResetWarning,0827.1,5.00,000.00,020.3,019.7,000.0,028.7,022.1,10.3,0000.0,0003.76,0001.05,0000.70
2024-03-27 22:24:00,SystemResetWarning,0827.1,5.00,000.00,020.3,019.7,000.0,028.7,022.1,10.7,0000.0,0003.82,0001.06,0000.70
2024-03-27 22:25:00,SystemResetWarning,0827.1,5.00,000.00,020.3,019.7,000.0,028.7,022.1,10.1,0000.0,0003.87,0001.03,0000.69
2024-03-27 22:26:00,SystemResetWarning,0827.1,5.00,000.00,020.3,019.7,000.0,028.7,022.1,10.4,0000.0,0004.02,0001.07,0000.69
2024-03-27 22:27:00,SystemResetWarning,0827.0,4.99,000.00,020.3,019.7,000.0,028.7,022.1,10.6,0000.0,0004.16,0001.10,0000.69
2024-03-27 22:28:00,SystemResetWarning,0827.0,4.99,000.00,020.3,019.7,000.0,028.7,022.1,10.4,0000.0,0004.25,0001.12,0000.69
2024-03-27 22:29:00,SystemResetWarning,0827.0,5.00,000.00,020.3,019.7,000.0,028.8,022.1,10.0,0000.0,0005.14,0001.11,0000.69
2024-03-27 22:30:00,SystemResetWarning,0827.1,5.01,000.00,020.3,019.7,000.0,028.8,022.1,09.7,0000.0,0005.43,0001.11,0000.69
2024-03-27 22:31:00,SystemResetWarning,0827.0,4.99,000.00,020.3,019.7,000.0,028.8,022.1,10.1,0000.0,0006.00,0001.13,0000.69
2024-03-27 22:32:00,SystemResetWarning,0827.1,4.99,000.00,020.3,019.7,000.0,028.7,022.1,10.0,0000.0,0005.86,0001.10,0000.68
2024-03-27 22:33:00,SystemResetWarning,0827.1,5.00,000.00,020.3,019.7,000.0,028.7,022.1,10.0,0000.0,0004.52,0001.05,0000.68
2024-03-27 22:34:00,SystemResetWarning,0827.2,5.00,000.00,020.3,019.7,000.0,028.8,022.1,10.0,0000.0,0004.90,0001.03,0000.68
2024-03-27 22:35:00,SystemResetWarning,0827.1,5.00,000.00,020.3,019.7,000.0,028.8,022.1,09.8,0000.0,0004.76,0000.99,0000.69
2024-03-27 22:36:00,SystemResetWarning,0827.2,5.01,000.00,020.3,019.7,000.0,028.8,022.1,09.9,0000.0,0004.70,0000.99,0000.69
2024-03-27 22:37:00,SystemResetWarning,0827.2,5.01,000.00,020.3,019.7,000.0,028.8,022.1,10.2,0000.0,0004.57,0000.97,0000.70
2024-03-27 22:38:00,SystemResetWarning,0827.2,5.00,000.00,020.3,019.7,000.0,028.8,022.1,10.3,0000.0,0004.52,0000.99,0000.71
2024-03-27 22:39:00,SystemResetWarning,0827.3,4.99,000.00,020.3,019.7,000.0,028.8,022.1,10.0,0000.0,0004.45,0000.97,0000.71
2024-03-27 22:40:00,SystemResetWarning,0827.3,4.99,000.00,020.3,019.8,000.0,028.8,022.1,10.2,0000.0,0003.57,0000.95,0000.71
2024-03-27 22:41:00,SystemResetWarning,0827.2,5.00,000.00,020.3,019.8,000.0,028.8,022.1,10.4,0000.0,0003.07,0000.92,0000.71
2024-03-27 22:42:00,SystemResetWarning,0827.2,5.00,000.00,020.3,019.8,000.0,028.8,022.1,10.5,0000.0,0002.32,0000.90,0000.71
2024-03-27 22:43:00,SystemResetWarning,0827.4,5.01,000.00,020.3,019.7,000.0,028.8,022.1,10.2,0000.0,0002.34,0000.93,0000.72
2024-03-27 22:44:00,SystemResetWarning,0827.4,5.00,000.00,020.3,019.7,000.0,028.8,022.1,09.8,0000.0,0002.09,0000.97,0000.73
2024-03-27 22:45:00,SystemResetWarning,0827.5,5.00,000.00,020.3,019.8,000.0,028.8,022.1,10.0,0000.0,0001.58,0000.98,0000.73
2024-03-27 22:46:00,SystemResetWarning,0827.4,4.99,000.00,020.3,019.8,000.0,028.8,022.1,10.7,0000.0,0001.69,0001.02,0000.74
2024-03-27 22:47:00,SystemResetWarning,0827.3,4.99,000.00,020.3,019.8,000.0,028.8,022.1,10.8,0000.0,0001.72,0001.04,0000.74
2024-03-27 22:48:00,SystemResetWarning,0827.4,5.01,000.00,020.4,019.8,000.0,028.8,022.1,10.3,0000.0,0001.74,0001.05,0000.74
2024-03-27 22:49:00,SystemResetWarning,0827.4,5.01,000.00,020.4,019.8,000.0,028.8,022.1,10.1,0000.0,0001.68,0001.02,0000.74
2024-03-27 22:50:00,SystemResetWarning,0827.4,5.01,000.00,020.4,019.8,000.0,028.8,022.1,10.6,0000.0,0001.65,0001.01,0000.74
2024-03-27 22:51:00,SystemResetWarning,0827.4,5.00,000.00,020.4,019.8,000.0,028.8,022.1,10.3,0000.0,0001.79,0001.06,0000.75
2024-03-27 22:52:00,SystemResetWarning,0827.4,4.99,000.00,020.4,019.7,000.0,028.8,022.1,10.2,0000.0,0001.83,0001.07,0000.74
2024-03-27 22:53:00,SystemResetWarning,0827.4,4.99,000.00,020.4,019.7,000.0,028.8,022.1,10.4,0000.0,0002.29,0001.06,0000.73
2024-03-27 22:54:00,SystemResetWarning,0827.4,4.99,000.00,020.4,019.7,000.0,028.8,022.1,11.1,0000.0,0002.32,0001.04,0000.73
2024-03-27 22:55:00,SystemResetWarning,0827.4,5.00,000.00,020.4,019.8,000.0,028.8,022.1,11.0,0000.0,0002.27,0001.02,0000.72
2024-03-27 22:56:00,SystemResetWarning,0827.4,4.99,000.00,020.4,019.8,000.0,028.8,022.1,11.2,0000.0,0002.12,0000.98,0000.72
2024-03-27 22:57:00,SystemResetWarning,0827.4,4.99,000.00,020.4,019.8,000.0,028.8,022.1,11.7,0000.0,0002.08,0000.97,0000.71
2024-03-27 22:58:00,SystemResetWarning,0827.5,5.00,000.00,020.4,019.8,000.0,028.8,022.1,11.7,0000.0,0002.06,0000.95,0000.71
2024-03-27 22:59:00,SystemResetWarning,0827.5,5.01,000.00,020.4,019.8,000.0,028.8,022.1,11.1,0000.0,0002.15,0000.96,0000.71
